Cleveland, OH

8:21 AM EST on February 26, 2017 (GMT -0500)
Burke Lakefront

Weather History for KBKL - August, 2012

Change the Weather History Date:

Tuesday, August 28, 2012

  Actual Average Record
Temperature  
Mean Temperature 72 °F -  
Max Temperature 75 °F 76 °F 88 °F (2004)
Min Temperature 70 °F 63 °F 57 °F (2015)
Cooling Degree Days 8    
Growing Degree Days 22 (Base 50)    
Moisture  
Dew Point 65 °F    
Average Humidity 78    
Maximum Humidity 97    
Minimum Humidity 57    
Precipitation  
Precipitation 0.00 in - - ()
Sea Level Pressure  
Sea Level Pressure 30.02 in    
Wind  
Wind Speed 6 mph (NW)    
Max Wind Speed 13 mph    
Max Gust Speed 21 mph    
Visibility 10 miles    
Events      
Averages and records for this station are not official NWS values.
T = Trace of Precipitation, MM = Missing Value Source: NWS Daily Summary

Daily Weather History Graph

Daily Weather History Graph

Search for Another Location

Airport or City:

Trip Planner

Search our weather history database for the weather conditions in past years. The results will help you decide how hot, cold, wet, or windy it might be!

Date:

Astronomy

Aug. 28, 2012 Rise Set
Actual Time 6:49 AM EDT 8:05 PM EDT
Civil Twilight 6:20 AM EDT 8:34 PM EDT
Nautical Twilight 5:46 AM EDT 9:08 PM EDT
Astronomical Twilight 5:09 AM EDT 9:44 PM EDT
Moon 6:08 PM EDT (8/28) 3:35 AM EDT (8/28)
Length of Visible Light 14h 13m
Length of Day
13h 16m
Waxing Gibbous, 90% of the Moon is Illuminated
Aug 28
Waxing Gibbous
Aug 31
Full
Sep 8
Last Quarter
Sep 15
New
Sep 22
First Quarter

Hourly Weather History & Observations

Time (EDT) Temp. Dew Point Humidity Pressure Visibility Wind Dir Wind Speed Gust Speed Precip Events Conditions
12:23 AM 71.6 °F 68.0 °F 88% 29.98 in 10.0 mi WNW 3.5 mph - N/A   Scattered Clouds
12:35 AM 71.6 °F 69.8 °F 94% 29.98 in 10.0 mi WNW 4.6 mph - N/A   Mostly Cloudy
12:44 AM 71.6 °F 69.8 °F 94% 29.98 in 10.0 mi NW 4.6 mph - N/A   Overcast
12:53 AM 72.0 °F 70.0 °F 93% 29.97 in 10.0 mi WNW 3.5 mph - N/A   Overcast
1:11 AM 71.6 °F 69.8 °F 94% 29.98 in 10.0 mi WNW 5.8 mph - N/A   Mostly Cloudy
1:53 AM 72.0 °F 70.0 °F 93% 29.98 in 10.0 mi WNW 6.9 mph - N/A   Mostly Cloudy
2:00 AM 71.6 °F 69.8 °F 94% 29.98 in 10.0 mi WNW 5.8 mph - N/A   Scattered Clouds
2:35 AM 71.6 °F 69.8 °F 94% 29.98 in 7.0 mi SW 3.5 mph - N/A   Mostly Cloudy
2:53 AM 70.0 °F 69.1 °F 97% 29.98 in 6.0 mi WSW 5.8 mph - N/A   Overcast
3:29 AM 71.6 °F 69.8 °F 94% 29.99 in 5.0 mi WSW 5.8 mph - N/A   Overcast
3:39 AM 71.6 °F 69.8 °F 94% 29.99 in 5.0 mi WNW 5.8 mph - N/A   Overcast
3:53 AM 72.0 °F 69.1 °F 91% 29.99 in 10.0 mi North 8.1 mph - N/A   Mostly Cloudy
4:53 AM 70.0 °F 66.9 °F 90% 29.99 in 10.0 mi NNE 5.8 mph - N/A   Clear
5:53 AM 71.1 °F 64.9 °F 81% 30.00 in 10.0 mi NNE 6.9 mph - N/A   Partly Cloudy
6:53 AM 70.0 °F 61.0 °F 73% 30.02 in 10.0 mi NNE 9.2 mph - N/A   Overcast
7:53 AM 72.0 °F 63.0 °F 73% 30.04 in 10.0 mi North 6.9 mph - N/A   Partly Cloudy
8:53 AM 73.0 °F 64.9 °F 76% 30.05 in 10.0 mi North 4.6 mph - N/A   Scattered Clouds
9:53 AM 73.0 °F 66.0 °F 79% 30.06 in 10.0 mi NNW 6.9 mph - N/A   Mostly Cloudy
10:38 AM 71.6 °F 64.4 °F 78% 30.08 in 10.0 mi North 12.7 mph - N/A   Mostly Cloudy
10:53 AM 73.0 °F 64.0 °F 73% 30.07 in 10.0 mi North 11.5 mph - N/A   Scattered Clouds
11:53 AM 73.9 °F 61.0 °F 64% 30.07 in 10.0 mi NNW 6.9 mph - N/A   Clear
12:53 PM 73.9 °F 62.1 °F 66% 30.07 in 10.0 mi NW 6.9 mph - N/A   Clear
1:53 PM 75.0 °F 60.1 °F 60% 30.06 in 10.0 mi NW 8.1 mph - N/A   Clear
2:53 PM 75.0 °F 61.0 °F 62% 30.05 in 10.0 mi NW 8.1 mph - N/A   Clear
3:53 PM 75.0 °F 59.0 °F 57% 30.03 in 10.0 mi WNW 11.5 mph - N/A   Clear
4:53 PM 75.0 °F 60.1 °F 60% 30.02 in 10.0 mi NNW 10.4 mph 20.7 mph N/A   Clear
5:53 PM 75.0 °F 59.0 °F 57% 30.02 in 10.0 mi NNW 6.9 mph - N/A   Clear
6:53 PM 73.9 °F 57.9 °F 57% 30.01 in 10.0 mi NNW 6.9 mph - N/A   Clear
7:53 PM 72.0 °F 59.0 °F 64% 30.01 in 10.0 mi NW 6.9 mph - N/A   Clear
8:53 PM 71.1 °F 60.1 °F 68% 30.02 in 10.0 mi NNW 4.6 mph - N/A   Clear
9:53 PM 72.0 °F 63.0 °F 73% 30.03 in 10.0 mi North 12.7 mph - N/A   Mostly Cloudy
10:53 PM 71.1 °F 60.1 °F 68% 30.03 in 10.0 mi NNE 10.4 mph - N/A   Partly Cloudy
11:53 PM 70.0 °F 61.0 °F 73% 30.04 in 10.0 mi NNE 11.5 mph - N/A   Partly Cloudy